Location: NJAA Observatory
(40.6819°N, 74.8979°W)
Time: 05:21:06
(UTC-05:00)

Vanguard 1 - All Passes

Search period start: 05 March 2015 00:00
Search period end: 15 March 2015 01:00
Orbit: 652 x 3834 km, 34.3° (Epoch: 03 March)

Date Brightness Start Highest point End Pass type
(mag) Time Alt. Az. Time Alt. Az. Time Alt. Az.
05 Mar - 00:40:43 10° W 01:00:55 64° SSW 01:23:10 10° SE visible
05 Mar - 03:06:11 10° W 03:26:21 38° SW 03:43:31 10° SSE visible
05 Mar - 18:02:37 10° S 18:10:18 25° SE 18:22:34 10° E visible
05 Mar - 20:19:12 10° SW 20:31:23 58° SSE 20:52:08 10° E visible
05 Mar - 22:39:37 10° W 22:56:13 72° S 23:19:49 10° ESE visible
06 Mar - 01:02:26 10° W 01:22:41 58° SSW 01:44:21 10° SE visible
06 Mar - 03:28:50 10° W 03:47:35 31° SW 04:03:14 10° S visible
06 Mar - 18:22:30 10° SSW 18:31:04 32° SE 18:45:22 10° E visible
06 Mar - 20:40:14 10° WSW 20:52:51 64° SSE 21:14:17 10° E visible
06 Mar - 23:01:04 10° W 23:18:06 71° S 23:41:38 10° ESE visible
07 Mar - 01:24:15 10° W 01:44:21 52° SSW 02:05:15 10° SE visible
07 Mar - 03:52:07 10° W 04:08:46 24° SW 04:22:13 10° S visible
07 Mar - 18:42:49 10° SSW 18:51:57 40° SE 19:07:51 10° E visible
07 Mar - 21:01:23 10° WSW 21:14:26 68° S 21:36:24 10° E visible
07 Mar - 23:22:35 10° W 23:39:58 67° SSW 00:03:18 10° ESE visible
08 Mar - 01:46:12 10° W 03:05:54 45° SSW 03:25:50 10° SSE visible
08 Mar - 05:16:40 10° W 05:29:57 17° SW 05:39:54 10° SSW visible
08 Mar - 17:49:19 10° SSE 17:53:24 14° SE 17:59:26 10° E daylight
08 Mar - 20:03:26 10° SW 20:13:01 48° SSE 20:30:08 10° E visible
08 Mar - 22:22:39 10° WSW 22:36:07 70° S 22:58:28 10° E visible
09 Mar - 00:44:08 10° W 01:01:47 63° SSW 01:24:46 10° SE visible
09 Mar - 03:08:22 10° W 03:27:22 37° SW 03:45:59 10° SSE visible
09 Mar - 05:45:44 10° WSW 05:51:10 10° SW 05:53:07 10° SW visible
09 Mar - 18:08:09 10° S 18:14:02 21° SE 18:23:09 10° E daylight
09 Mar - 20:24:16 10° SW 20:34:13 56° SSE 20:52:19 10° E visible
09 Mar - 22:43:58 10° W 22:57:52 71° S 23:20:28 10° ESE visible
10 Mar - 01:05:45 10° W 01:23:33 57° SSW 01:45:59 10° SE visible
10 Mar - 03:30:56 10° W 03:48:46 30° SW 04:05:37 10° S visible
10 Mar - 18:27:58 10° SSW 18:34:45 28° SE 18:45:57 10° E daylight
10 Mar - 20:45:15 10° WSW 20:55:35 62° SSE 21:14:28 10° E visible
10 Mar - 23:05:20 10° W 23:19:39 69° S 23:42:21 10° ESE visible
11 Mar - 01:27:27 10° W 01:45:15 50° SSW 02:06:54 10° SE visible
11 Mar - 03:54:09 10° W 04:10:09 23° SW 04:24:28 10° S visible
11 Mar - 18:48:15 10° SSW 18:55:36 36° SE 19:08:22 10° E daylight
11 Mar - 21:06:22 10° WSW 21:17:04 66° S 21:36:35 10° E visible
11 Mar - 23:26:45 10° W 23:41:25 65° SSW 00:04:05 10° ESE visible
12 Mar - 01:49:18 10° W 02:06:52 43° SSW 02:27:27 10° SSE visible
12 Mar - 04:18:40 10° W 04:31:33 16° SW 04:41:56 10° SSW visible
12 Mar - 16:56:12 10° SE 16:57:34 11° SE 16:59:45 10° ESE daylight
12 Mar - 19:08:50 10° SW 19:16:36 45° SSE 19:30:35 10° E visible
12 Mar - 21:27:34 10° WSW 21:38:38 68° S 21:58:40 10° E visible
12 Mar - 23:48:12 10° W 00:03:10 60° SSW 00:25:35 10° SE visible
13 Mar - 02:11:25 10° W 02:28:27 36° SW 02:47:33 10° SSE visible
13 Mar - 04:48:21 10° WSW 04:53:00 10° SW 04:54:12 10° SW visible
13 Mar - 17:13:59 10° S 17:18:13 17° SE 17:24:22 10° E daylight
13 Mar - 19:29:39 10° SW 19:37:44 52° SSE 19:52:42 10° E visible
13 Mar - 21:48:49 10° W 22:00:15 68° S 22:20:40 10° ESE visible
14 Mar - 00:09:44 10° W 00:24:53 54° SSW 00:46:49 10° SE visible
14 Mar - 02:33:54 10° W 02:50:00 29° SW 03:07:05 10° S visible
14 Mar - 17:33:39 10° S 17:38:56 24° SE 17:47:12 10° E daylight
14 Mar - 19:50:37 10° WSW 19:59:00 59° SSE 20:14:47 10° E visible
14 Mar - 22:10:06 10° W 22:21:54 66° S 22:42:34 10° ESE visible
